This demonstration page uses our WeatherBlox Daily Observations layout. Learn more.

Left ArrowRight Arrow

36.17497, -115.13722

Hourly Observations for March 29, 2015

Temp ( °F °C ) Dew Point ( °F °C ) Humidity (%) Winds ( mph kmh ) Pressure ( in mb ) Visibility ( mi km ) Precip ( " mm )
12:53 am 00:53 Clear 70 21.1 18 -7.8 14 14 WNW 6 9 30.01 1016 10 16 N/A
1:53 am 01:53 Clear 65 18.3 22 -5.6 19 19 W 5 7 30.01 1016 10 16 N/A
2:53 am 02:53 Clear 66 18.9 18 -7.8 16 16 N 6 9 30.00 1016 10 16 N/A
3:53 am 03:53 Clear 65 18.3 15 -9.4 14 14 NNW 7 11 30.00 1016 10 16 N/A
4:53 am 04:53 Clear 66 18.9 11 -11.7 11 11 NNE 10 17 30.01 1016 10 16 N/A
5:53 am 05:53 Clear 64 17.8 14 -10 14 14 W 6 9 30.05 1018 10 16 N/A
6:53 am 06:53 Sunny 62 16.7 18 -7.8 18 18 VRB 3 6 30.08 1019 10 16 N/A
7:53 am 07:53 Sunny 68 20 18 -7.8 15 15 WNW 6 9 30.09 1019 10 16 N/A
8:53 am 08:53 Sunny 73 22.8 16 -8.9 11 11 N N/A 30.10 1019 10 16 N/A
9:53 am 09:53 Sunny 75 23.9 16 -8.9 10 10 VRB 5 7 30.12 1020 10 16 N/A
10:53 am 10:53 Sunny 78 25.6 15 -9.4 9 9 E 6 9 30.11 1020 10 16 N/A
11:53 am 11:53 Sunny 80 26.7 17 -8.3 9 9 ESE 8 13 30.10 1019 10 16 N/A
12:53 pm 12:53 Sunny 83 28.3 17 -8.3 8 8 ESE 10 17 30.07 1018 10 16 N/A
1:53 pm 13:53 Sunny 83 28.3 14 -10 7 7 VRB 7 11 30.04 1017 10 16 N/A
2:53 pm 14:53 Sunny 85 29.4 12 -11.1 6 6 VRB 7 11 30.01 1016 10 16 N/A
3:53 pm 15:53 Sunny 88 31.1 12 -11.1 6 6 E 7 11 29.98 1015 10 16 N/A
4:53 pm 16:53 Sunny 88 31.1 10 -12.2 5 5 SSE 3 6 29.96 1015 10 16 N/A
5:53 pm 17:53 Sunny 86 30 11 -11.7 6 6 SE 6 9 29.95 1014 10 16 N/A
6:53 pm 18:53 Sunny 82 27.8 13 -10.6 7 7 ESE 5 7 29.96 1015 10 16 N/A
7:53 pm 19:53 Clear 82 27.8 14 -10 8 8 N N/A 29.96 1014 10 16 N/A
8:53 pm 20:53 Clear 76 24.4 20 -6.7 12 12 WNW 8 13 29.98 1015 10 16 N/A
9:53 pm 21:53 Clear 73 22.8 23 -5 15 15 NNW 8 13 29.99 1016 10 16 N/A
10:53 pm 22:53 Clear 70 21.1 23 -5 17 17 N 6 9 29.99 1016 10 16 N/A
11:53 pm 23:53 Clear 68 20 23 -5 18 18 NNW 6 9 30.00 1016 10 16 N/A

Powered by AerisWeather